This is the latest recevied weather packets stored in our database for station/object K6CED. If no packets are shown the sender has not sent any weather packets the latest 10 day(s).
| Time | Temp. | Humidity | Pressure | Rain* | Wind** | Luminosity | Snow |
|---|---|---|---|---|---|---|---|
| 1788363880 | 20° C | 63% | 1019.3 hPa | 0 mm | - | 377 W/m² | - |
| 1788363579 | 19.44° C | 64% | 1018.9 hPa | 0 mm | - | 341 W/m² | - |
| 1788363278 | 19.44° C | 63% | 1019.1 hPa | 0 mm | - | 323 W/m² | - |
| 1788362974 | 19.44° C | 65% | 1019.2 hPa | 0 mm | - | 292 W/m² | - |
| 1788362669 | 18.33° C | 65% | 1019.2 hPa | 0 mm | - | 283 W/m² | - |
| 1788362365 | 18.33° C | 63% | 1019.5 hPa | 0 mm | - | 245 W/m² | - |
| 1788362061 | 17.78° C | 64% | 1019.1 hPa | 0 mm | - | 240 W/m² | - |
| 1788361754 | 17.78° C | 67% | 1019.4 hPa | 0 mm | - | 217 W/m² | - |
| 1788361451 | 17.22° C | 69% | 1019.2 hPa | 0 mm | - | 194 W/m² | - |
| 1788361149 | 16.67° C | 71% | 1019.2 hPa | 0 mm | - | 173 W/m² | - |
| 1788360840 | 16.11° C | 73% | 1019.2 hPa | 0 mm | - | 164 W/m² | - |
| 1788360534 | 15.56° C | 76% | 1019.1 hPa | 0 mm | - | 154 W/m² | - |
| 1788360231 | 15.56° C | 77% | 1019.2 hPa | 0 mm | - | 121 W/m² | - |
| 1788359925 | 14.44° C | 80% | 1019.1 hPa | 0 mm | - | 101 W/m² | - |
| 1788359619 | 13.33° C | 87% | 1019.4 hPa | 0 mm | - | 88 W/m² | - |
| 1788359315 | 13.89° C | 93% | 1019.2 hPa | 0 mm | - | 80 W/m² | - |
| 1788359011 | 13.89° C | 95% | 1019.3 hPa | 0 mm | - | 95 W/m² | - |
| 1788358706 | 13.33° C | 95% | 1019.2 hPa | 0 mm | - | 78 W/m² | - |
| 1788358402 | 12.78° C | 95% | 1019.2 hPa | 0 mm | - | 66 W/m² | - |
| 1788358101 | 12.22° C | 96% | 1018.9 hPa | 0 mm | - | 43 W/m² | - |
| 1788357796 | 11.11° C | 96% | 1018.8 hPa | 0 mm | - | 38 W/m² | - |
| 1788357495 | 11.67° C | 97% | 1018.9 hPa | 0 mm | - | 38 W/m² | - |
| 1788357192 | 11.11° C | 97% | 1018.7 hPa | 0 mm | - | 31 W/m² | - |
| 1788356890 | 11.11° C | 97% | 1018.6 hPa | 0 mm | - | 20 W/m² | - |
| 1788356586 | 11.67° C | 97% | 1018.4 hPa | 0 mm | - | 17 W/m² | - |
* Rain latest hour (hover to see other rain measurements)
** Current wind speed in m/s (hover to see current wind gust speed)